Location: Lecco
(45.8566°N, 9.3977°E)
Time: 20:46:22
(UTC+02:00)

S-56A Canister/Altair - Pass Details

Date: 25 July 2019
Orbit: 633 x 2499 km, 38.9° (Epoch: 23 August)

Event Time Altitude Azimuth Distance (km) Brightness Sun altitude
Rises 05:35:47 0° 205° (SSW) 4,352 10.8 -3.9°
Reaches altitude 10° 05:38:51 10° 195° (SSW) 3,640 10.5 -3.5°
Maximum altitude 05:46:56 30° 139° (SE) 2,967 10.7 -2.3°
Drops below altitude 10° 05:57:34 10° 86° (E) 4,867 12.9 -0.7°
Sets 06:02:23 0° 77° (ENE) 6,049 14.0 0.0°
